Hors Challenge

Le Trail Du Hérou - Nadrin (10.5 km)

samedi 07 septembre 2019

Vous pouvez trouver Le classement original sur : https://www.betrail.run/race
 
LE TRAIL DU HÉROU - NADRIN
DISTANCE : 10.50 km
samedi 07 septembre 2019
 
Place NOM Catégorie Pl/cat temps temps/km Vitesse
01:00:00            
1 ARNOULD MATHIASBE HOMME 1 01:03:08 06:01 9.98
2 GASPARD GRÉGORYBE HOMME 2 01:07:19 06:25 9.36
3 ANGONESE SIMONBE HOMME 3 01:11:49 06:50 8.77
4 MALARDEAU FLORIANBE HOMME 4 01:15:31 07:12 8.34
5 SARLET CEDRICBE HOMME 5 01:18:40 07:30 8.01
6 THESIAS JONATHAN HOMME 6 01:24:45 08:04 7.43
7 NEELEN JORI HOMME 7 01:26:27 08:14 7.29
8 KECH HUGOBE HOMME 8 01:27:17 08:19 7.22
9 PIRON ELOISE DAME 1 01:27:21 08:19 7.21
10 KECH MICHAELBE HOMME 9 01:28:12 08:24 7.14
11 LEFEVRE VICTOR HOMME 10 01:29:02 08:29 7.08
12 GREVESSE STEPHANIE DAME 2 01:30:33 08:37 6.96
13 GREGOIRE SANDRABE DAME 3 01:30:46 08:39 6.94
14 BASTIN OLIVIERFR HOMME 11 01:32:18 08:47 6.83
15 WIDART KEVIN HOMME 12 01:33:58 08:57 6.70
16 DUMONT HADRIEN DAME 4 01:34:45 09:01 6.65
17 LEJEUNE LOUIS HOMME 13 01:35:39 09:07 6.59
18 EULAERTS OLIVIER HOMME 14 01:35:50 09:08 6.57
19 DE BROUWER ROMANE DAME 5 01:37:44 09:18 6.45
20 DE BROUWER SERGE HOMME 15 01:37:46 09:19 6.44
21 GROMMERCH ERIC HOMME 16 01:39:50 09:30 6.31
22 OTTE SIMON HOMME 17 01:39:52 09:31 6.31
23 PORRINI ALYSSABE DAME 6 01:40:28 09:34 6.27
24 DOSSARD INCONNU 1 HOMME 18 01:42:50 09:48 6.13
25 MAQUET STÉPHANIEBE DAME 7 01:43:05 09:49 6.11
26 ARNOULD BERNARD HOMME 19 01:43:48 09:53 6.07
27 HURIAUX FRÉDÉRIC HOMME 20 01:44:02 09:54 6.06
28 DE VITA FEDERICO HOMME 21 01:44:08 09:55 6.05
29 BELFORTE MICHELE HOMME 22 01:44:08 09:55 6.05
30 AUPAIX XAVIER HOMME 23 01:45:17 10:02 5.98
31 LEONARD JULIEBE DAME 8 01:46:44 10:10 5.90
32 ROUSSELLE JULIEN HOMME 24 01:47:44 10:16 5.85
33 BERNARD PATRICKFR HOMME 25 01:48:39 10:21 5.80
34 DACHE GUILLAUMEBE HOMME 26 01:48:41 10:21 5.80
35 FADEUR ESTELLE DAME 9 01:49:50 10:28 5.74
36 PEFFER VINCENT HOMME 27 01:50:26 10:31 5.70
37 BECHOUX JULIEN HOMME 28 01:50:29 10:31 5.70
38 BOUZENDORFF CHARLOTTEBE DAME 10 01:50:30 10:31 5.70
39 LAMOTTE VINCENT HOMME 29 01:51:02 10:34 5.67
40 CHALTIN PATRICEBE HOMME 30 01:52:00 10:40 5.63
41 LAMBIN VÉRONIQUE DAME 11 01:52:46 10:44 5.59
42 SERRUS KAREN DAME 12 01:53:47 10:50 5.54
43 ROCHET CHRISTELBE DAME 13 01:54:25 10:54 5.51
44 CAPART THIERRY HOMME 31 01:54:48 10:56 5.49
45 ROMBAUX YANN HOMME 32 01:55:19 10:59 5.46
46 RINGLET TAREKBE HOMME 33 01:55:38 11:01 5.45
47 GASPAR AUDREYBE DAME 14 01:56:39 11:07 5.40
48 REMY NINON DAME 15 01:56:53 11:08 5.39
49 REMY ROGER HOMME 34 01:56:54 11:08 5.39
50 BASTIN PATRICK HOMME 35 01:57:09 11:09 5.38
51 FRANSSEN SARAH DAME 16 01:57:24 11:11 5.37
52 BOMBOIR VANESSA DAME 17 01:57:25 11:11 5.37
53 BIHAIN LEA DAME 18 01:57:37 11:12 5.36
54 BIHAIN CAMILLE DAME 19 01:57:40 11:12 5.35
55 CLOSTER CAROLINEBE DAME 20 01:59:01 11:20 5.29
56 DAOUST LINDSAY DAME 21 01:59:55 11:25 5.25
57 MAZINGUE MICKAEL HOMME 36 02:01:53 11:36 5.17
58 GILBERT DOMINIQUE HOMME 37 02:03:33 11:46 5.10
59 MICHEL ''MITCH'' DECKERSBE HOMME 38 02:03:55 11:48 5.08
60 ROSSIER OLIVIER HOMME 39 02:06:41 12:04 4.97
61 ROB FRANÇOIS HOMME 40 02:06:48 12:05 4.97
62 BULTOT LAURENT HOMME 41 02:06:48 12:05 4.97
63 HAAN JOELLE DAME 22 02:07:30 12:09 4.94
64 LAMBERT STEPHANIEBE DAME 23 02:07:33 12:09 4.94
65 VAN OBBERGHEN MIA DAME 24 02:07:47 12:10 4.93
66 DOSSARD INCONNU 2 HOMME 42 02:09:09 12:18 4.88
67 TASSIGNY SYLVIANEBE DAME 25 02:09:10 12:18 4.88
68 LEFEVRE LAURENTFR HOMME 43 02:09:53 12:22 4.85
69 LAHAYE LOUNA DAME 26 02:10:03 12:23 4.84
70 LAHAYE MATHIS HOMME 44 02:10:03 12:23 4.84
71 LAHAYE PASCAL HOMME 45 02:10:07 12:24 4.84
72 GENIN FRANÇOISE DAME 27 02:10:11 12:24 4.84
73 PONCIN MICHEL HOMME 46 02:10:11 12:24 4.84
74 BLAISE LAURENCE DAME 28 02:10:23 12:25 4.83
75 VANDEVOORDE STEPHANIE DAME 29 02:12:06 12:35 4.77
76 HUET ANNE-CATHERINE DAME 30 02:12:42 12:38 4.75
77 SONDAG CAROLINE DAME 31 02:13:09 12:41 4.73
78 DUMAY GERALDINE DAME 32 02:13:15 12:41 4.73
79 PIRON CELINE DAME 33 02:13:16 12:42 4.73
80 LIEVENS VANESSA DAME 34 02:13:18 12:42 4.73
81 SCHMITT SANDRINEFR DAME 35 02:13:40 12:44 4.71
82 MARCHAND MICHELFR HOMME 47 02:14:09 12:47 4.70
83 LOUIS MARIE CHRISTINE DAME 36 02:14:29 12:48 4.68
84 THIRY ISALINE DAME 37 02:14:33 12:49 4.68
85 COBOS ANTONIA DAME 38 02:14:36 12:49 4.68
86 FEKENNE BENOITBE HOMME 48 02:14:58 12:51 4.67
87 BURNOTTE M CECILE DAME 39 02:15:17 12:53 4.66
88 HEUSDEN ISABELLE DAME 40 02:15:58 12:57 4.63
89 WOTQUENNE FRANCOISBE HOMME 49 02:17:15 13:04 4.59
90 MARIEN VALERIE DAME 41 02:18:08 13:09 4.56
91 CECI MARIE DAME 42 02:18:14 13:10 4.56
92 DEMOULIN MARIE CHRISTINE DAME 43 02:18:36 13:12 4.55
93 DE KETELAERE DORIAN HOMME 50 02:18:49 13:13 4.54
94 MONTILLA LOREN DAME 44 02:18:51 13:13 4.54
95 DETHOR JOËLLE DAME 45 02:19:11 13:15 4.53
96 CAUWERTS PATRICIABE DAME 46 02:20:06 13:21 4.50
97 D'URSO MICHEL HOMME 51 02:20:07 13:21 4.50
98 LAROSE HELENE DAME 47 02:20:07 13:21 4.50
99 RENIER JOELLE HOMME 52 02:20:07 13:21 4.50
100 BAUGNET JOELLE DAME 48 02:20:12 13:21 4.49
101 WARNIER MÉLANIE DAME 49 02:20:18 13:22 4.49
102 VERBEKE VÉRONIQUE DAME 50 02:21:01 13:26 4.47
103 GRANDJEAN MURIELLE DAME 51 02:21:44 13:30 4.44
104 EULAERTS GREGORYBE HOMME 53 02:22:17 13:33 4.43
105 JONKEAU ANNE-LISEBE DAME 52 02:25:09 13:49 4.34
106 SKA VICKY DAME 53 02:25:10 13:50 4.34
107 HAYANI ABDER HOMME 54 02:25:27 13:51 4.33
108 MATHIEU CAROLINEFR DAME 54 02:25:58 13:54 4.32
109 BODART MARIE NOELLE DAME 55 02:27:56 14:05 4.26
110 VAN DE VELDE SOFIE DAME 56 02:29:39 14:15 4.21
111 USVALD LAURENCE DAME 57 02:30:17 14:19 4.19
112 GOFFART VIRGINIE DAME 58 02:30:37 14:21 4.18
113 FUN PIETER DAME 59 02:34:09 14:41 4.09
114 FUN THIRSA DAME 60 02:34:36 14:43 4.08
115 LIBROT SERGE HOMME 55 02:34:44 14:44 4.07
116 VICTOOR VALÉRIE DAME 61 02:34:45 14:44 4.07
117 VAN CAMP CAROLINE DAME 62 02:34:47 14:44 4.07
118 MALOTAUX DIMITRI HOMME 56 02:34:47 14:44 4.07
119 RESTEIGNE ANN DAME 63 02:34:47 14:44 4.07
120 LALLEMAND PASCALEBE DAME 64 02:34:53 14:45 4.07
121 ROSTENNE JEAN-MICHEL HOMME 57 02:35:13 14:47 4.06
122 MAIGRET CORALIE DAME 65 02:35:14 14:47 4.06
123 SAVOLDI LAURENCE DAME 66 02:36:41 14:55 4.02
124 SERRÉ CHRISTINE DAME 67 02:43:11 15:32 3.86
125 GASPAR WINTGENS SYLVIE DAME 68 02:43:47 15:36 3.85
126 MAILLEUX SANDRA DAME 69 02:43:53 15:36 3.84
127 GOFFINET ISABELLE DAME 70 02:46:30 15:51 3.78
128 MARCQ ANDRÉ HOMME 58 02:46:30 15:51 3.78
129 DELVIESMAISON STÉFANIEBE DAME 71 02:46:51 15:53 3.78
130 METILLON HENRI HOMME 59 02:51:49 16:22 3.67
131 LEBEAU MARIANNE DAME 72 02:51:50 16:22 3.67
132 DUYCK NADINE DAME 73 02:51:50 16:22 3.67
133 VAN ELSANDE PATRICIA DAME 74 02:53:39 16:32 3.63
134 LAMOULINE FRANÇOISE DAME 75 02:53:40 16:32 3.63
135 VERHAMME   MARIEKE DAME 76 02:54:56 16:40 3.60
136 PELTIER BAPTISTE HOMME 60 02:55:16 16:42 3.59
137 VANHAELEN CEDRIC HOMME 61 02:55:16 16:42 3.59
138 HELYN CYRIL HOMME 62 02:55:24 16:42 3.59
139 ROEMERSMA JANNEKE DAME 77 02:59:14 17:04 3.51
140 KAUFMANN ALAIN HOMME 63 03:02:14 17:21 3.46
141 MAZINGUE EDWIGE DAME 78 03:13:50 18:28 3.25
142 VALLE RAMIREZ MARIA DAME 79 03:20:08 19:04 3.15
143 BLIN CLAUDE HOMME 64 03:25:21 19:33 3.07
144 SOLROC CHARLOTTE DAME 80 03:42:54 21:14 2.83